Wolke Sonne

Wetter Roßtal

Gehe zu: Ammerndorf

Tageswerte vom Freitag, 02.12.2022

Optionen

Tag:
Erweitert:

Alle Werte vom Freitag, 02.12.2022

Einen Moment bitte, die Daten werden aufbereitet...

UhrzeitTemperaturFeuchteLuftdruckNiederschlagEvapotranspirationNiederschlag?WindWindböenRegenrateWindrichtungHelligkeitSolarstrahlungUV-IndexSonne?Feinstaub 10µmFeinstaub 2,5µmUhrzeit
Diagramm IconDiagramm IconDiagramm IconDiagramm IconDiagramm IconDiagramm IconDiagramm IconDiagramm IconDiagramm IconDiagramm IconDiagramm IconDiagramm IconDiagramm IconDiagramm IconDiagramm IconDiagramm Icon
00:003,3 °C 93 % - 0,0 mm 0,0 mm nein 0,0 km/h 3,2 km/h 0,0 mm/h OSO 0,000 klux 0,0 W/qm 0,0 nein 7,56 µg/m³ 5,31 µg/m³ 00:00
00:053,3 °C 93 % - 0,0 mm 0,0 mm nein 0,0 km/h 1,6 km/h 0,0 mm/h OSO 0,000 klux 0,0 W/qm 0,0 nein 7,80 µg/m³ 5,23 µg/m³ 00:05
00:103,3 °C 93 % - 0,0 mm 0,0 mm nein 0,0 km/h 1,6 km/h 0,0 mm/h OSO 0,000 klux 0,0 W/qm 0,0 nein 6,18 µg/m³ 4,50 µg/m³ 00:10
00:153,3 °C 93 % - 0,0 mm 0,0 mm nein 0,0 km/h 1,6 km/h 0,0 mm/h OSO 0,000 klux 0,0 W/qm 0,0 nein 5,45 µg/m³ 4,11 µg/m³ 00:15
00:203,3 °C 93 % - 0,0 mm 0,0 mm nein 0,0 km/h 3,2 km/h 0,0 mm/h OSO 0,000 klux 0,0 W/qm 0,0 nein 5,60 µg/m³ 4,19 µg/m³ 00:20
00:253,3 °C 93 % - 0,0 mm 0,0 mm nein 0,0 km/h 1,6 km/h 0,0 mm/h OSO 0,000 klux 0,0 W/qm 0,0 nein 6,95 µg/m³ 4,70 µg/m³ 00:25
00:303,3 °C 93 % - 0,0 mm 0,0 mm nein 0,0 km/h 3,2 km/h 0,0 mm/h OSO 0,000 klux 0,0 W/qm 0,0 nein 6,82 µg/m³ 5,11 µg/m³ 00:30
00:353,3 °C 93 % - 0,0 mm 0,0 mm nein 0,0 km/h 1,6 km/h 0,0 mm/h OSO 0,000 klux 0,0 W/qm 0,0 nein 6,11 µg/m³ 4,64 µg/m³ 00:35
00:403,3 °C 93 % - 0,0 mm 0,0 mm nein 1,6 km/h 6,4 km/h 0,0 mm/h OSO 0,000 klux 0,0 W/qm 0,0 nein 6,30 µg/m³ 4,40 µg/m³ 00:40
00:453,3 °C 93 % - 0,0 mm 0,0 mm nein 3,2 km/h 8,0 km/h 0,0 mm/h OSO 0,000 klux 0,0 W/qm 0,0 nein 6,73 µg/m³ 4,48 µg/m³ 00:45
00:503,3 °C 93 % - 0,0 mm 0,0 mm nein 3,2 km/h 6,4 km/h 0,0 mm/h OSO 0,000 klux 0,0 W/qm 0,0 nein 6,99 µg/m³ 4,51 µg/m³ 00:50
00:553,3 °C 93 % - 0,0 mm 0,0 mm nein 1,6 km/h 3,2 km/h 0,0 mm/h OSO 0,000 klux 0,0 W/qm 0,0 nein 6,94 µg/m³ 4,57 µg/m³ 00:55
01:003,3 °C 93 % - 0,0 mm 0,0 mm nein 1,6 km/h 3,2 km/h 0,0 mm/h OSO 0,000 klux 0,0 W/qm 0,0 nein 7,21 µg/m³ 4,59 µg/m³ 01:00
01:052,8 °C 93 % - 0,0 mm 0,0 mm nein 3,2 km/h 6,4 km/h 0,0 mm/h OSO 0,000 klux 0,0 W/qm 0,0 nein 7,17 µg/m³ 4,87 µg/m³ 01:05
01:102,8 °C 93 % - 0,0 mm 0,0 mm nein 3,2 km/h 6,4 km/h 0,0 mm/h ONO 0,000 klux 0,0 W/qm 0,0 nein 7,37 µg/m³ 4,97 µg/m³ 01:10
01:152,8 °C 93 % - 0,0 mm 0,0 mm nein 3,2 km/h 4,8 km/h 0,0 mm/h SSO 0,000 klux 0,0 W/qm 0,0 nein 7,07 µg/m³ 4,83 µg/m³ 01:15
01:202,8 °C 93 % - 0,0 mm 0,0 mm nein 0,0 km/h 1,6 km/h 0,0 mm/h SSO 0,000 klux 0,0 W/qm 0,0 nein 8,00 µg/m³ 5,06 µg/m³ 01:20
01:252,8 °C 93 % - 0,0 mm 0,0 mm nein 1,6 km/h 4,8 km/h 0,0 mm/h SSO 0,000 klux 0,0 W/qm 0,0 nein 7,66 µg/m³ 5,18 µg/m³ 01:25
01:302,8 °C 93 % - 0,0 mm 0,0 mm nein 0,0 km/h 3,2 km/h 0,0 mm/h SSO 0,000 klux 0,0 W/qm 0,0 nein 9,78 µg/m³ 6,25 µg/m³ 01:30
01:352,8 °C 93 % - 0,0 mm 0,0 mm nein 1,6 km/h 4,8 km/h 0,0 mm/h SSO 0,000 klux 0,0 W/qm 0,0 nein 13,40 µg/m³ 8,68 µg/m³ 01:35
01:402,8 °C 93 % - 0,0 mm 0,0 mm nein 1,6 km/h 6,4 km/h 0,0 mm/h SSO 0,000 klux 0,0 W/qm 0,0 nein 8,66 µg/m³ 5,79 µg/m³ 01:40
01:452,8 °C 93 % - 0,0 mm 0,0 mm nein 0,0 km/h 4,8 km/h 0,0 mm/h SSO 0,000 klux 0,0 W/qm 0,0 nein 7,80 µg/m³ 5,11 µg/m³ 01:45
01:502,8 °C 93 % - 0,0 mm 0,0 mm nein 1,6 km/h 3,2 km/h 0,0 mm/h SSO 0,000 klux 0,0 W/qm 0,0 nein 7,09 µg/m³ 4,75 µg/m³ 01:50
01:552,8 °C 93 % - 0,0 mm 0,0 mm nein 0,0 km/h 3,2 km/h 0,0 mm/h SSO 0,000 klux 0,0 W/qm 0,0 nein 7,95 µg/m³ 5,44 µg/m³ 01:55
UhrzeitTemperaturFeuchteLuftdruckNiederschlagEvapotranspirationNiederschlag?WindWindböenRegenrateWindrichtungHelligkeitSolarstrahlungUV-IndexSonne?Feinstaub 10µmFeinstaub 2,5µmUhrzeit
02:002,8 °C 93 % - 0,0 mm 0,0 mm nein 1,6 km/h 3,2 km/h 0,0 mm/h SSO 0,000 klux 0,0 W/qm 0,0 nein 7,80 µg/m³ 5,53 µg/m³ 02:00
02:052,8 °C 93 % - 0,0 mm 0,0 mm nein 1,6 km/h 4,8 km/h 0,0 mm/h SSO 0,000 klux 0,0 W/qm 0,0 nein 8,85 µg/m³ 5,70 µg/m³ 02:05
02:102,8 °C 93 % - 0,0 mm 0,0 mm nein 1,6 km/h 6,4 km/h 0,0 mm/h SO 0,000 klux 0,0 W/qm 0,0 nein 8,05 µg/m³ 5,36 µg/m³ 02:10
02:152,8 °C 93 % - 0,0 mm 0,0 mm nein 1,6 km/h 4,8 km/h 0,0 mm/h SO 0,000 klux 0,0 W/qm 0,0 nein 7,31 µg/m³ 5,45 µg/m³ 02:15
02:202,8 °C 93 % - 0,0 mm 0,0 mm nein 1,6 km/h 4,8 km/h 0,0 mm/h SO 0,000 klux 0,0 W/qm 0,0 nein 10,30 µg/m³ 6,02 µg/m³ 02:20
02:252,8 °C 93 % - 0,0 mm 0,0 mm nein 3,2 km/h 6,4 km/h 0,0 mm/h OSO 0,000 klux 0,0 W/qm 0,0 nein 9,51 µg/m³ 6,00 µg/m³ 02:25
02:302,8 °C 93 % - 0,0 mm 0,0 mm nein 3,2 km/h 9,7 km/h 0,0 mm/h OSO 0,000 klux 0,0 W/qm 0,0 nein 10,27 µg/m³ 6,60 µg/m³ 02:30
02:352,8 °C 93 % - 0,0 mm 0,0 mm nein 3,2 km/h 8,0 km/h 0,0 mm/h OSO 0,000 klux 0,0 W/qm 0,0 nein 10,50 µg/m³ 6,68 µg/m³ 02:35
02:402,8 °C 93 % - 0,0 mm 0,0 mm nein 1,6 km/h 4,8 km/h 0,0 mm/h OSO 0,000 klux 0,0 W/qm 0,0 nein 8,23 µg/m³ 5,45 µg/m³ 02:40
02:452,8 °C 93 % - 0,0 mm 0,0 mm nein 1,6 km/h 4,8 km/h 0,0 mm/h OSO 0,000 klux 0,0 W/qm 0,0 nein 9,09 µg/m³ 5,79 µg/m³ 02:45
02:502,8 °C 93 % - 0,0 mm 0,0 mm nein 1,6 km/h 4,8 km/h 0,0 mm/h OSO 0,000 klux 0,0 W/qm 0,0 nein 7,92 µg/m³ 5,33 µg/m³ 02:50
02:552,8 °C 93 % - 0,0 mm 0,0 mm nein 1,6 km/h 4,8 km/h 0,0 mm/h OSO 0,000 klux 0,0 W/qm 0,0 nein 9,65 µg/m³ 5,82 µg/m³ 02:55
03:002,8 °C 93 % - 0,0 mm 0,0 mm nein 1,6 km/h 4,8 km/h 0,0 mm/h OSO 0,000 klux 0,0 W/qm 0,0 nein 10,30 µg/m³ 6,55 µg/m³ 03:00
03:052,8 °C 93 % - 0,0 mm 0,0 mm nein 1,6 km/h 4,8 km/h 0,0 mm/h OSO 0,000 klux 0,0 W/qm 0,0 nein 9,63 µg/m³ 6,06 µg/m³ 03:05
03:102,8 °C 93 % - 0,0 mm 0,0 mm nein 1,6 km/h 4,8 km/h 0,0 mm/h OSO 0,000 klux 0,0 W/qm 0,0 nein - - 03:10
03:152,8 °C 93 % - 0,2 mm 0,0 mm ja 3,2 km/h 6,4 km/h 0,0 mm/h OSO 0,000 klux 0,0 W/qm 0,0 nein 9,86 µg/m³ 6,19 µg/m³ 03:15
03:202,8 °C 93 % - 0,0 mm 0,0 mm nein 3,2 km/h 8,0 km/h 0,0 mm/h OSO 0,000 klux 0,0 W/qm 0,0 nein 10,31 µg/m³ 5,93 µg/m³ 03:20
03:252,8 °C 93 % - 0,0 mm 0,0 mm nein 3,2 km/h 6,4 km/h 0,0 mm/h OSO 0,000 klux 0,0 W/qm 0,0 nein 10,84 µg/m³ 6,19 µg/m³ 03:25
03:302,8 °C 93 % - 0,0 mm 0,0 mm nein 3,2 km/h 9,7 km/h 0,0 mm/h SO 0,000 klux 0,0 W/qm 0,0 nein 11,89 µg/m³ 6,81 µg/m³ 03:30
03:352,8 °C 93 % - 0,0 mm 0,0 mm nein 3,2 km/h 9,7 km/h 0,0 mm/h SO 0,000 klux 0,0 W/qm 0,0 nein 10,42 µg/m³ 6,26 µg/m³ 03:35
03:402,8 °C 93 % - 0,0 mm 0,0 mm nein 3,2 km/h 14,5 km/h 0,0 mm/h OSO 0,000 klux 0,0 W/qm 0,0 nein 11,66 µg/m³ 6,36 µg/m³ 03:40
03:452,8 °C 93 % - 0,0 mm 0,0 mm nein 3,2 km/h 11,3 km/h 0,0 mm/h SO 0,000 klux 0,0 W/qm 0,0 nein 10,69 µg/m³ 6,05 µg/m³ 03:45
03:502,2 °C 93 % - 0,0 mm 0,0 mm nein 4,8 km/h 14,5 km/h 0,0 mm/h O 0,000 klux 0,0 W/qm 0,0 nein 11,80 µg/m³ 6,58 µg/m³ 03:50
03:552,2 °C 93 % - 0,0 mm 0,0 mm nein 4,8 km/h 12,9 km/h 0,0 mm/h OSO 0,000 klux 0,0 W/qm 0,0 nein 11,19 µg/m³ 6,74 µg/m³ 03:55
UhrzeitTemperaturFeuchteLuftdruckNiederschlagEvapotranspirationNiederschlag?WindWindböenRegenrateWindrichtungHelligkeitSolarstrahlungUV-IndexSonne?Feinstaub 10µmFeinstaub 2,5µmUhrzeit
04:002,2 °C 93 % - 0,2 mm 0,0 mm ja 4,8 km/h 12,9 km/h 0,0 mm/h SO 0,000 klux 0,0 W/qm 0,0 nein 11,42 µg/m³ 6,41 µg/m³ 04:00
04:052,2 °C 93 % - 0,0 mm 0,0 mm nein 4,8 km/h 11,3 km/h 0,0 mm/h OSO 0,000 klux 0,0 W/qm 0,0 nein 9,79 µg/m³ 6,02 µg/m³ 04:05
04:102,2 °C 93 % - 0,0 mm 0,0 mm nein 3,2 km/h 9,7 km/h 0,0 mm/h SO 0,000 klux 0,0 W/qm 0,0 nein 11,45 µg/m³ 6,48 µg/m³ 04:10
04:152,2 °C 93 % - 0,0 mm 0,0 mm nein 3,2 km/h 4,8 km/h 0,0 mm/h OSO 0,000 klux 0,0 W/qm 0,0 nein 10,97 µg/m³ 6,36 µg/m³ 04:15
04:202,2 °C 93 % - 0,0 mm 0,0 mm nein 1,6 km/h 6,4 km/h 0,0 mm/h OSO 0,000 klux 0,0 W/qm 0,0 nein 13,29 µg/m³ 7,33 µg/m³ 04:20
04:252,2 °C 93 % - 0,0 mm 0,0 mm nein 1,6 km/h 6,4 km/h 0,0 mm/h OSO 0,000 klux 0,0 W/qm 0,0 nein 11,89 µg/m³ 6,80 µg/m³ 04:25
04:302,2 °C 93 % - 0,0 mm 0,0 mm nein 1,6 km/h 8,0 km/h 0,0 mm/h OSO 0,000 klux 0,0 W/qm 0,0 nein 11,32 µg/m³ 6,57 µg/m³ 04:30
04:352,2 °C 93 % - 0,0 mm 0,0 mm nein 3,2 km/h 6,4 km/h 0,0 mm/h ONO 0,000 klux 0,0 W/qm 0,0 nein 14,03 µg/m³ 7,04 µg/m³ 04:35
04:402,2 °C 93 % - 0,0 mm 0,0 mm nein 3,2 km/h 6,4 km/h 0,0 mm/h O 0,000 klux 0,0 W/qm 0,0 nein 11,68 µg/m³ 6,92 µg/m³ 04:40
04:452,2 °C 93 % - 0,0 mm 0,0 mm nein 1,6 km/h 6,4 km/h 0,0 mm/h OSO 0,000 klux 0,0 W/qm 0,0 nein 12,74 µg/m³ 7,16 µg/m³ 04:45
04:502,2 °C 93 % - 0,0 mm 0,0 mm nein 1,6 km/h 3,2 km/h 0,0 mm/h OSO 0,000 klux 0,0 W/qm 0,0 nein 13,19 µg/m³ 7,52 µg/m³ 04:50
04:552,2 °C 94 % - 0,0 mm 0,0 mm nein 1,6 km/h 6,4 km/h 0,0 mm/h OSO 0,000 klux 0,0 W/qm 0,0 nein 13,02 µg/m³ 7,45 µg/m³ 04:55
05:002,2 °C 94 % - 0,0 mm 0,0 mm nein 1,6 km/h 8,0 km/h 0,0 mm/h OSO 0,000 klux 0,0 W/qm 0,0 nein 9,90 µg/m³ 6,07 µg/m³ 05:00
05:052,2 °C 94 % - 0,0 mm 0,0 mm nein 1,6 km/h 6,4 km/h 0,0 mm/h O 0,000 klux 0,0 W/qm 0,0 nein 10,59 µg/m³ 5,90 µg/m³ 05:05
05:102,2 °C 94 % - 0,0 mm 0,0 mm nein 1,6 km/h 6,4 km/h 0,0 mm/h O 0,000 klux 0,0 W/qm 0,0 nein 11,06 µg/m³ 5,47 µg/m³ 05:10
05:152,2 °C 94 % - 0,0 mm 0,0 mm nein 1,6 km/h 4,8 km/h 0,0 mm/h O 0,000 klux 0,0 W/qm 0,0 nein 11,43 µg/m³ 5,87 µg/m³ 05:15
05:202,2 °C 94 % - 0,0 mm 0,0 mm nein 1,6 km/h 6,4 km/h 0,0 mm/h OSO 0,000 klux 0,0 W/qm 0,0 nein 10,85 µg/m³ 5,94 µg/m³ 05:20
05:252,2 °C 94 % - 0,0 mm 0,0 mm nein 1,6 km/h 6,4 km/h 0,0 mm/h OSO 0,000 klux 0,0 W/qm 0,0 nein 9,93 µg/m³ 5,93 µg/m³ 05:25
05:302,2 °C 94 % - 0,0 mm 0,0 mm nein 1,6 km/h 4,8 km/h 0,0 mm/h OSO 0,000 klux 0,0 W/qm 0,0 nein 12,15 µg/m³ 7,11 µg/m³ 05:30
05:352,2 °C 94 % - 0,0 mm 0,0 mm nein 1,6 km/h 3,2 km/h 0,0 mm/h OSO 0,000 klux 0,0 W/qm 0,0 nein 11,25 µg/m³ 6,24 µg/m³ 05:35
05:402,2 °C 94 % - 0,0 mm 0,0 mm nein 0,0 km/h 3,2 km/h 0,0 mm/h OSO 0,000 klux 0,0 W/qm 0,0 nein 9,21 µg/m³ 5,28 µg/m³ 05:40
05:452,2 °C 94 % - 0,0 mm 0,0 mm nein 1,6 km/h 3,2 km/h 0,0 mm/h OSO 0,000 klux 0,0 W/qm 0,0 nein 11,13 µg/m³ 6,46 µg/m³ 05:45
05:502,2 °C 94 % - 0,0 mm 0,0 mm nein 1,6 km/h 4,8 km/h 0,0 mm/h OSO 0,000 klux 0,0 W/qm 0,0 nein 9,76 µg/m³ 5,45 µg/m³ 05:50
05:552,2 °C 94 % - 0,0 mm 0,0 mm nein 3,2 km/h 8,0 km/h 0,0 mm/h O 0,000 klux 0,0 W/qm 0,0 nein 10,79 µg/m³ 6,34 µg/m³ 05:55
UhrzeitTemperaturFeuchteLuftdruckNiederschlagEvapotranspirationNiederschlag?WindWindböenRegenrateWindrichtungHelligkeitSolarstrahlungUV-IndexSonne?Feinstaub 10µmFeinstaub 2,5µmUhrzeit
06:002,2 °C 94 % - 0,0 mm 0,0 mm nein 1,6 km/h 4,8 km/h 0,0 mm/h O 0,000 klux 0,0 W/qm 0,0 nein 7,50 µg/m³ 4,41 µg/m³ 06:00
06:052,2 °C 94 % - 0,0 mm 0,0 mm nein 1,6 km/h 8,0 km/h 0,0 mm/h O 0,000 klux 0,0 W/qm 0,0 nein 8,49 µg/m³ 4,91 µg/m³ 06:05
06:102,2 °C 94 % - 0,0 mm 0,0 mm nein 1,6 km/h 4,8 km/h 0,0 mm/h O 0,000 klux 0,0 W/qm 0,0 nein 10,26 µg/m³ 5,45 µg/m³ 06:10
06:152,2 °C 94 % - 0,0 mm 0,0 mm nein 3,2 km/h 8,0 km/h 0,0 mm/h O 0,000 klux 0,0 W/qm 0,0 nein 9,26 µg/m³ 5,47 µg/m³ 06:15
06:202,2 °C 94 % - 0,0 mm 0,0 mm nein 1,6 km/h 4,8 km/h 0,0 mm/h ONO 0,000 klux 0,0 W/qm 0,0 nein 10,06 µg/m³ 5,87 µg/m³ 06:20
06:252,2 °C 94 % - 0,0 mm 0,0 mm nein 1,6 km/h 4,8 km/h 0,0 mm/h ONO 0,000 klux 0,0 W/qm 0,0 nein 8,57 µg/m³ 5,05 µg/m³ 06:25
06:301,7 °C 94 % - 0,0 mm 0,0 mm nein 1,6 km/h 4,8 km/h 0,0 mm/h O 0,000 klux 0,0 W/qm 0,0 nein 8,15 µg/m³ 4,67 µg/m³ 06:30
06:351,7 °C 94 % - 0,0 mm 0,0 mm nein 0,0 km/h 4,8 km/h 0,0 mm/h O 0,000 klux 0,0 W/qm 0,0 nein 8,48 µg/m³ 4,92 µg/m³ 06:35
06:401,7 °C 94 % - 0,0 mm 0,0 mm nein 1,6 km/h 4,8 km/h 0,0 mm/h O 0,000 klux 0,0 W/qm 0,0 nein 7,54 µg/m³ 4,61 µg/m³ 06:40
06:451,7 °C 94 % - 0,0 mm 0,0 mm nein 3,2 km/h 8,0 km/h 0,0 mm/h ONO 0,000 klux 0,0 W/qm 0,0 nein 8,04 µg/m³ 4,81 µg/m³ 06:45
06:501,7 °C 94 % - 0,0 mm 0,0 mm nein 4,8 km/h 11,3 km/h 0,0 mm/h O 0,000 klux 0,0 W/qm 0,0 nein 8,54 µg/m³ 4,91 µg/m³ 06:50
06:551,7 °C 94 % - 0,0 mm 0,0 mm nein 3,2 km/h 9,7 km/h 0,0 mm/h O 0,000 klux 0,0 W/qm 0,0 nein 7,18 µg/m³ 4,53 µg/m³ 06:55
07:001,7 °C 94 % - 0,0 mm 0,0 mm nein 4,8 km/h 11,3 km/h 0,0 mm/h O 0,000 klux 0,0 W/qm 0,0 nein 9,16 µg/m³ 4,92 µg/m³ 07:00
07:051,7 °C 94 % - 0,0 mm 0,0 mm nein 1,6 km/h 6,4 km/h 0,0 mm/h ONO 0,000 klux 0,0 W/qm 0,0 nein 6,97 µg/m³ 4,49 µg/m³ 07:05
07:101,7 °C 94 % - 0,0 mm 0,0 mm nein 1,6 km/h 4,8 km/h 0,0 mm/h ONO 0,000 klux 0,0 W/qm 0,0 nein 6,71 µg/m³ 4,17 µg/m³ 07:10
07:151,7 °C 94 % - 0,0 mm 0,0 mm nein 1,6 km/h 4,8 km/h 0,0 mm/h ONO 0,000 klux 0,0 W/qm 0,0 nein 7,17 µg/m³ 4,62 µg/m³ 07:15
07:201,7 °C 94 % - 0,0 mm 0,0 mm nein 1,6 km/h 6,4 km/h 0,0 mm/h ONO 0,000 klux 0,0 W/qm 0,0 nein 8,12 µg/m³ 4,91 µg/m³ 07:20
07:251,7 °C 94 % - 0,0 mm 0,0 mm nein 1,6 km/h 6,4 km/h 0,0 mm/h ONO 0,000 klux 0,0 W/qm 0,0 nein 8,07 µg/m³ 4,88 µg/m³ 07:25
07:301,7 °C 94 % - 0,0 mm 0,0 mm nein 1,6 km/h 4,8 km/h 0,0 mm/h O 0,000 klux 0,0 W/qm 0,0 nein 6,64 µg/m³ 4,36 µg/m³ 07:30
07:351,7 °C 94 % - 0,0 mm 0,0 mm nein 3,2 km/h 8,0 km/h 0,0 mm/h O 0,000 klux 0,0 W/qm 0,0 nein 6,74 µg/m³ 4,34 µg/m³ 07:35
07:401,7 °C 94 % - 0,0 mm 0,0 mm nein 3,2 km/h 9,7 km/h 0,0 mm/h O 0,000 klux 0,0 W/qm 0,0 nein 6,79 µg/m³ 4,16 µg/m³ 07:40
07:451,7 °C 94 % - 0,0 mm 0,0 mm nein 3,2 km/h 4,8 km/h 0,0 mm/h O 0,000 klux 0,0 W/qm 0,0 nein 6,83 µg/m³ 4,49 µg/m³ 07:45
07:501,7 °C 94 % - 0,0 mm 0,0 mm nein 1,6 km/h 6,4 km/h 0,0 mm/h O 0,000 klux 0,0 W/qm 0,0 nein 6,78 µg/m³ 4,30 µg/m³ 07:50
07:551,1 °C 94 % - 0,0 mm 0,0 mm nein 3,2 km/h 8,0 km/h 0,0 mm/h ONO 0,000 klux 0,0 W/qm 0,0 nein 7,01 µg/m³ 4,44 µg/m³ 07:55
UhrzeitTemperaturFeuchteLuftdruckNiederschlagEvapotranspirationNiederschlag?WindWindböenRegenrateWindrichtungHelligkeitSolarstrahlungUV-IndexSonne?Feinstaub 10µmFeinstaub 2,5µmUhrzeit
08:001,1 °C 95 % - 0,0 mm 0,0 mm nein 3,2 km/h 8,0 km/h 0,0 mm/h OSO 0,000 klux 0,0 W/qm 0,0 nein 5,16 µg/m³ 3,36 µg/m³ 08:00
08:051,1 °C 95 % - 0,0 mm 0,0 mm nein 1,6 km/h 4,8 km/h 0,0 mm/h O 0,000 klux 0,0 W/qm 0,0 nein 5,77 µg/m³ 3,80 µg/m³ 08:05
08:101,1 °C 95 % - 0,0 mm 0,0 mm nein 3,2 km/h 8,0 km/h 0,0 mm/h OSO 0,000 klux 0,0 W/qm 0,0 nein 6,68 µg/m³ 3,86 µg/m³ 08:10
08:151,1 °C 95 % - 0,0 mm 0,0 mm nein 1,6 km/h 6,4 km/h 0,0 mm/h O 0,000 klux 0,0 W/qm 0,0 nein 6,86 µg/m³ 4,23 µg/m³ 08:15
08:201,1 °C 95 % - 0,0 mm 0,0 mm nein 3,2 km/h 8,0 km/h 0,0 mm/h O 0,000 klux 0,0 W/qm 0,0 nein 7,98 µg/m³ 5,37 µg/m³ 08:20
08:251,1 °C 95 % - 0,0 mm 0,0 mm nein 0,0 km/h 3,2 km/h 0,0 mm/h O 0,000 klux 4,0 W/qm 0,0 nein 5,95 µg/m³ 3,71 µg/m³ 08:25
08:301,1 °C 95 % - 0,0 mm 0,0 mm nein 3,2 km/h 4,8 km/h 0,0 mm/h O 0,000 klux 9,0 W/qm 0,0 nein 5,81 µg/m³ 3,80 µg/m³ 08:30
08:351,1 °C 95 % - 0,0 mm 0,0 mm nein 1,6 km/h 4,8 km/h 0,0 mm/h O 0,000 klux 14,0 W/qm 0,0 nein 6,07 µg/m³ 3,81 µg/m³ 08:35
08:401,1 °C 95 % - 0,0 mm 0,0 mm nein 1,6 km/h 6,4 km/h 0,0 mm/h O 0,000 klux 17,0 W/qm 0,0 nein 4,71 µg/m³ 3,15 µg/m³ 08:40
08:451,1 °C 95 % - 0,0 mm 0,0 mm nein 1,6 km/h 6,4 km/h 0,0 mm/h O 0,000 klux 18,0 W/qm 0,0 nein 5,71 µg/m³ 3,94 µg/m³ 08:45
08:501,1 °C 95 % - 0,0 mm 0,0 mm nein 1,6 km/h 6,4 km/h 0,0 mm/h O 0,000 klux 12,0 W/qm 0,0 nein 5,27 µg/m³ 3,15 µg/m³ 08:50
08:551,1 °C 95 % - 0,0 mm 0,0 mm nein 1,6 km/h 4,8 km/h 0,0 mm/h O 0,000 klux 13,0 W/qm 0,0 nein 5,06 µg/m³ 3,37 µg/m³ 08:55
09:001,1 °C 95 % - 0,0 mm 0,0 mm nein 3,2 km/h 6,4 km/h 0,0 mm/h O 0,000 klux 13,0 W/qm 0,0 nein 5,87 µg/m³ 3,54 µg/m³ 09:00
09:051,1 °C 95 % - 0,0 mm 0,0 mm nein 1,6 km/h 6,4 km/h 0,0 mm/h O 0,000 klux 11,0 W/qm 0,0 nein 5,42 µg/m³ 3,32 µg/m³ 09:05
09:101,1 °C 95 % - 0,0 mm 0,0 mm nein 1,6 km/h 6,4 km/h 0,0 mm/h O 0,000 klux 11,0 W/qm 0,0 nein 5,61 µg/m³ 3,52 µg/m³ 09:10
09:151,1 °C 95 % - 0,0 mm 0,0 mm nein 3,2 km/h 6,4 km/h 0,0 mm/h O 0,000 klux 13,0 W/qm 0,0 nein 5,57 µg/m³ 3,53 µg/m³ 09:15
09:201,1 °C 95 % - 0,0 mm 0,0 mm nein 1,6 km/h 4,8 km/h 0,0 mm/h O 0,000 klux 16,0 W/qm 0,0 nein 5,57 µg/m³ 3,62 µg/m³ 09:20
09:251,1 °C 95 % - 0,0 mm 0,0 mm nein 1,6 km/h 6,4 km/h 0,0 mm/h O 0,000 klux 16,0 W/qm 0,0 nein 5,57 µg/m³ 3,88 µg/m³ 09:25
09:301,1 °C 95 % - 0,0 mm 0,0 mm nein 1,6 km/h 4,8 km/h 0,0 mm/h O 0,000 klux 15,0 W/qm 0,0 nein 5,18 µg/m³ 3,14 µg/m³ 09:30
09:351,1 °C 95 % - 0,0 mm 0,0 mm nein 1,6 km/h 4,8 km/h 0,0 mm/h O 0,000 klux 16,0 W/qm 0,0 nein 6,72 µg/m³ 4,28 µg/m³ 09:35
09:401,1 °C 95 % - 0,0 mm 0,0 mm nein 0,0 km/h 1,6 km/h 0,0 mm/h O 0,000 klux 20,0 W/qm 0,0 nein 4,89 µg/m³ 3,37 µg/m³ 09:40
09:451,1 °C 95 % - 0,0 mm 0,0 mm nein 1,6 km/h 6,4 km/h 0,0 mm/h O 0,000 klux 23,0 W/qm 0,0 nein 5,19 µg/m³ 3,50 µg/m³ 09:45
09:501,1 °C 95 % - 0,0 mm 0,0 mm nein 1,6 km/h 3,2 km/h 0,0 mm/h O 0,000 klux 27,0 W/qm 0,0 nein 6,00 µg/m³ 4,01 µg/m³ 09:50
09:551,1 °C 95 % - 0,0 mm 0,0 mm nein 1,6 km/h 4,8 km/h 0,0 mm/h O 0,000 klux 27,0 W/qm 0,0 nein 5,46 µg/m³ 3,64 µg/m³ 09:55
UhrzeitTemperaturFeuchteLuftdruckNiederschlagEvapotranspirationNiederschlag?WindWindböenRegenrateWindrichtungHelligkeitSolarstrahlungUV-IndexSonne?Feinstaub 10µmFeinstaub 2,5µmUhrzeit
10:001,1 °C 95 % - 0,0 mm 0,0 mm nein 1,6 km/h 4,8 km/h 0,0 mm/h O 0,000 klux 32,0 W/qm 0,0 nein 7,79 µg/m³ 4,64 µg/m³ 10:00
10:051,1 °C 95 % - 0,0 mm 0,0 mm nein 1,6 km/h 3,2 km/h 0,0 mm/h O 0,000 klux 35,0 W/qm 0,0 nein 6,98 µg/m³ 4,43 µg/m³ 10:05
10:101,1 °C 95 % - 0,0 mm 0,0 mm nein 0,0 km/h 3,2 km/h 0,0 mm/h O 0,000 klux 41,0 W/qm 0,0 nein 6,84 µg/m³ 4,26 µg/m³ 10:10
10:151,1 °C 95 % - 0,0 mm 0,0 mm nein 1,6 km/h 6,4 km/h 0,0 mm/h O 0,000 klux 42,0 W/qm 0,0 nein 10,10 µg/m³ 5,71 µg/m³ 10:15
10:201,7 °C 95 % - 0,0 mm 0,0 mm nein 1,6 km/h 4,8 km/h 0,0 mm/h SO 0,000 klux 42,0 W/qm 0,0 nein 11,88 µg/m³ 5,78 µg/m³ 10:20
10:251,7 °C 95 % - 0,0 mm 0,0 mm nein 1,6 km/h 6,4 km/h 0,0 mm/h SO 0,000 klux 38,0 W/qm 0,0 nein 12,03 µg/m³ 5,93 µg/m³ 10:25
10:301,7 °C 95 % - 0,0 mm 0,0 mm nein 1,6 km/h 6,4 km/h 0,0 mm/h S 0,000 klux 30,0 W/qm 0,0 nein 10,58 µg/m³ 5,75 µg/m³ 10:30
10:351,7 °C 95 % - 0,0 mm 0,0 mm nein 3,2 km/h 8,0 km/h 0,0 mm/h SSO 0,000 klux 34,0 W/qm 0,0 nein 12,25 µg/m³ 6,31 µg/m³ 10:35
10:401,7 °C 95 % - 0,0 mm 0,0 mm nein 1,6 km/h 4,8 km/h 0,0 mm/h SSO 0,000 klux 34,0 W/qm 0,0 nein 10,90 µg/m³ 5,62 µg/m³ 10:40
10:451,7 °C 95 % - 0,0 mm 0,0 mm nein 1,6 km/h 6,4 km/h 0,0 mm/h SSO 0,000 klux 38,0 W/qm 0,0 nein 11,36 µg/m³ 5,83 µg/m³ 10:45
10:501,7 °C 95 % - 0,0 mm 0,0 mm nein 1,6 km/h 6,4 km/h 0,0 mm/h SSO 0,000 klux 39,0 W/qm 0,0 nein 11,01 µg/m³ 5,81 µg/m³ 10:50
10:551,7 °C 95 % - 0,0 mm 0,0 mm nein 3,2 km/h 11,3 km/h 0,0 mm/h SO 0,000 klux 41,0 W/qm 0,0 nein 10,83 µg/m³ 5,75 µg/m³ 10:55
Gesamt: 2,1 °C 94 % nan hPa 0,4 mm 0,0 mm ja 2,0 km/h 6,0 km/h 0,0 mm/h 0 0,000 klux 5,6 W/qm 0,0 nein 8,60 µg/m³ 5,22 µg/m³

Insgesamt 132 Zeilen mal 16 Spalten = 2112 Werte werden angezeigt.

www.wetter-rosstal.de   •   www.wetter-franken.de   •   www.lightningmaps.org   •   Start   •   Kontakt / Datenschutz   •   PC-Kümmerer